Location: Castillon
(43.0896°N, 0.2156°E)
Time: 03:50:16
(UTC+00:00)

Celestis-02/Orion 38 - Visible Passes

Search period start: 17 October 2021 00:00
Search period end: 27 October 2021 00:00
Orbit: 775 x 865 km, 108.0° (Epoch: 16 October)

Date Brightness Start Highest point End Pass type
(mag) Time Alt. Az. Time Alt. Az. Time Alt. Az.
17 Oct 6.7 04:57:46 10° ESE 05:02:14 27° NE 05:06:39 10° N visible
18 Oct 7.2 04:38:05 10° E 04:41:42 19° NE 04:45:17 10° N visible
19 Oct 7.3 04:18:59 10° ENE 04:21:16 13° NE 04:23:31 10° NNE visible
20 Oct 6.1 05:33:39 10° ESE 05:38:39 39° NE 05:43:35 10° NNW visible
21 Oct 6.7 05:13:37 10° ESE 05:18:03 27° NE 05:22:25 10° N visible
22 Oct 7.1 04:53:58 10° E 04:57:32 18° NE 05:01:03 10° N visible
23 Oct 7.3 04:34:54 10° ENE 04:37:06 13° NE 04:39:15 10° NNE visible
24 Oct 6.1 05:49:30 10° ESE 05:54:29 39° NE 05:59:22 10° NNW visible
25 Oct 6.7 05:29:29 10° ESE 05:33:52 26° NE 05:38:12 10° N visible
26 Oct 7.1 05:09:51 10° E 05:13:21 18° NE 05:16:49 10° N visible
